Wind_Speed
9 6 4 5 4 3 3 3 3 4 5 6 7 8 10 12 14 16 16 15 16 20 22 21 21 22 22 21 19 18 17 15
5 2 2 3 4 5 5 4 5 6 6 6 6 7 9 12 14 15 17 17 17 18 21 21 21 21 23 24 21 19 20 19
2 2 4 6 8 6 6 6 5 6 5 5 6 8 10 11 13 15 18 20 23 22 23 22 20 22 23 23 23 22 22 22
1 6 9 9 7 7 6 5 4 3 5 7 8 12 15 15 16 16 18 21 23 24 25 24 22 22 26 28 26 25 26 25
7 8 9 7 6 5 3 1 0 4 6 9 11 14 17 17 18 19 20 21 24 27 28 26 25 26 30 29 28 28 28 26
6 4 9 6 4 2 2 3 5 7 10 12 14 15 18 19 19 20 22 25 29 29 29 29 31 33 34 30 31 30 29 28
7 6 5 4 2 4 6 8 10 11 14 15 17 17 20 20 19 22 26 29 32 32 34 35 38 39 38 38 35 31 32 32
4 5 8 8 9 9 8 11 14 14 16 17 18 19 21 21 22 27 33 34 35 36 37 39 44 43 44 42 40 38 37 34
5 9 13 15 14 12 11 6 14 17 17 17 18 20 22 26 31 33 35 36 37 39 41 44 47 48 47 46 44 44 43 39
10 17 22 26 20 18 16 26 19 17 16 17 20 22 25 30 32 33 33 36 42 44 46 48 51 50 49 46 45 40 39 39
15 22 28 27 19 21 17 13 14 17 18 18 23 23 27 30 30 34 34 43 47 46 49 52 52 51 48 45 40 38 38 37
17 26 23 21 22 17 17 14 14 15 16 22 28 30 31 34 36 39 43 43 46 49 49 51 53 53 48 46 44 41 42 41
15 17 18 20 17 18 18 18 17 18 24 25 30 31 35 36 38 41 45 47 50 53 55 53 50 51 49 47 46 46 47 49
13 15 16 14 16 15 15 19 23 25 26 29 34 33 36 40 44 47 49 52 55 54 51 51 50 50 50 51 53 53 53 50
15 15 18 19 18 20 21 21 21 24 29 33 37 40 42 46 51 51 54 51 50 48 50 51 50 52 53 52 51 52 51 48
16 19 18 17 16 21 23 25 29 32 37 43 47 50 51 53 55 53 49 48 48 52 55 58 55 45 42 42 43 46 49 51
13 13 14 20 23 29 31 34 38 42 46 48 50 52 54 53 51 50 51 53 55 54 50 48 47 46 44 43 42 43 45 47
13 14 19 23 30 35 38 40 42 46 50 48 52 51 50 49 49 49 47 47 47 43 47 50 37 41 42 44 45 45 47 50
19 23 25 30 36 38 41 43 45 46 48 50 50 50 49 48 48 48 50 50 46 43 48 42 44 42 41 44 45 42 42 42
21 25 28 33 39 45 45 45 46 48 49 49 49 49 48 49 51 51 49 45 39 48 48 45 44 36 36 39 39 36 32 34
Wind_Direction
146 163 208 254 247 166 146 133 99 80 78 69 56 47 35 25 14 7 4 3 3 5 358 354 354 354 355 355 352 349 349 339
148 199 222 166 139 129 136 115 105 101 81 62 49 39 26 18 9 3 358 354 349 348 349 344 345 346 344 342 340 341 341 339
196 192 142 131 114 120 113 111 100 75 50 32 21 13 0 355 350 353 351 348 343 339 337 334 333 335 339 335 327 326 330 331
165 139 139 122 110 112 107 86 83 36 5 2 355 348 341 334 328 324 331 337 335 330 328 327 325 326 329 326 319 316 315 316
149 134 122 119 113 106 105 65 282 340 340 334 332 330 328 324 318 313 316 322 324 323 324 321 321 318 323 315 319 314 306 307
143 115 101 89 84 16 319 286 280 303 307 307 314 320 323 317 314 308 310 320 325 326 321 317 316 320 322 318 316 314 309 302
141 98 126 75 302 324 327 293 282 288 291 302 306 305 311 310 310 303 314 322 323 322 318 317 320 320 322 320 315 310 308 307
182 197 200 197 223 237 252 269 276 278 284 298 300 300 305 306 306 312 318 316 316 315 315 313 316 314 315 314 310 307 306 302
248 246 249 235 233 234 250 312 286 277 286 293 303 307 319 326 321 315 311 311 313 311 308 307 311 309 309 307 305 305 304 298
264 271 263 263 250 247 290 349 300 280 290 296 314 316 320 317 312 307 304 304 306 302 302 304 305 305 304 302 301 299 295 293
266 273 274 286 277 319 334 329 291 284 290 299 310 305 304 305 297 292 292 300 303 300 301 302 304 304 304 302 298 296 293 293
280 276 285 300 311 328 326 320 306 294 295 299 307 309 300 289 291 298 298 297 296 297 299 301 302 301 299 297 295 293 292 290
282 296 296 303 313 325 325 318 307 302 299 297 299 294 295 296 298 297 298 297 297 298 302 302 301 299 298 297 296 292 291 291
289 287 290 303 322 324 313 302 298 299 300 299 303 303 305 305 302 299 297 299 301 302 306 304 298 297 297 298 298 296 295 295
301 314 322 327 321 316 307 300 300 304 307 309 309 310 308 308 308 304 307 303 303 300 303 302 296 300 300 300 299 297 297 294
340 334 329 318 318 316 306 304 310 310 309 309 309 309 310 310 312 310 306 303 300 301 303 299 297 295 295 298 296 296 296 294
343 339 324 319 322 325 325 323 320 318 318 313 309 310 310 311 310 305 304 297 296 300 300 299 300 304 309 305 297 292 290 291
323 322 319 324 330 332 327 321 315 312 313 310 309 310 308 306 302 299 298 296 297 300 304 306 307 311 306 300 295 292 292 293
311 324 326 325 329 321 315 312 312 313 313 312 311 311 310 307 308 309 308 307 308 304 305 296 312 305 297 293 291 291 292 293
311 318 322 321 319 318 316 315 315 313 312 312 313 313 312 312 311 309 307 307 292 299 292 314 306 295 294 296 301 303 302 303
Height
3177 3178 3179 3179 3180 3180 3181 3183 3183 3184 3185 3184 3184 3184 3183 3182 3181 3181 3179 3178 3177 3174 3173 3170 3168 3167 3165 3164 3162 3160 3158 3156
3177 3178 3178 3179 3180 3180 3182 3182 3183 3184 3185 3184 3184 3183 3182 3181 3181 3180 3179 3177 3177 3173 3173 3170 3168 3165 3164 3163 3161 3158 3157 3155
3176 3177 3178 3179 3180 3181 3182 3183 3184 3184 3184 3184 3183 3182 3181 3179 3181 3179 3177 3176 3174 3172 3170 3168 3166 3164 3162 3161 3159 3157 3155 3153
3175 3176 3178 3178 3180 3181 3183 3184 3185 3184 3185 3183 3181 3180 3180 3179 3178 3177 3176 3173 3172 3169 3167 3166 3164 3162 3160 3158 3156 3153 3150 3150
3174 3176 3177 3180 3181 3182 3183 3184 3184 3184 3183 3182 3180 3179 3178 3176 3176 3174 3172 3171 3169 3166 3165 3163 3160 3158 3157 3154 3151 3149 3147 3145
3176 3178 3179 3181 3181 3182 3183 3183 3182 3182 3182 3180 3178 3177 3175 3172 3172 3171 3169 3167 3165 3162 3160 3157 3155 3153 3151 3149 3146 3143 3142 3140
3177 3179 3179 3181 3181 3182 3182 3182 3180 3179 3179 3177 3175 3174 3172 3169 3169 3166 3164 3161 3159 3156 3154 3151 3149 3147 3144 3143 3141 3138 3135 3134
3177 3178 3177 3177 3177 3177 3178 3178 3177 3175 3174 3173 3172 3170 3168 3167 3165 3161 3157 3154 3152 3150 3148 3145 3142 3140 3137 3135 3133 3131 3129 3127
3175 3175 3174 3174 3174 3173 3175 3170 3171 3172 3169 3169 3167 3166 3163 3160 3157 3155 3152 3148 3146 3144 3141 3138 3135 3132 3130 3128 3126 3124 3120 3118
3173 3172 3171 3171 3170 3169 3159 3164 3167 3167 3166 3164 3163 3161 3158 3156 3154 3151 3147 3143 3140 3137 3133 3130 3127 3124 3122 3120 3118 3116 3113 3110
3170 3168 3167 3168 3167 3161 3164 3163 3165 3164 3164 3161 3158 3156 3154 3151 3148 3145 3141 3137 3133 3130 3125 3121 3117 3114 3111 3108 3107 3106 3103 3100
3167 3165 3165 3164 3164 3162 3163 3162 3161 3160 3159 3156 3153 3150 3148 3145 3142 3138 3134 3130 3126 3122 3117 3113 3107 3103 3101 3099 3097 3095 3092 3089
3167 3165 3163 3162 3160 3159 3158 3158 3158 3156 3154 3151 3147 3144 3142 3138 3134 3130 3125 3120 3116 3111 3106 3101 3096 3091 3087 3086 3085 3083 3081 3078
3164 3162 3161 3160 3158 3157 3157 3155 3154 3151 3148 3145 3141 3138 3134 3131 3126 3122 3116 3110 3104 3098 3093 3089 3084 3079 3076 3073 3068 3067 3065 3065
3161 3160 3158 3156 3156 3155 3154 3152 3149 3146 3142 3138 3134 3131 3127 3122 3116 3110 3104 3098 3093 3088 3083 3079 3073 3070 3064 3061 3055 3051 3048 3050
3157 3157 3157 3157 3156 3153 3151 3148 3144 3140 3135 3130 3125 3120 3115 3110 3104 3099 3093 3087 3082 3076 3071 3067 3062 3058 3055 3052 3046 3039 3033 3029
3157 3156 3155 3153 3151 3148 3144 3140 3135 3130 3126 3121 3115 3110 3104 3099 3093 3087 3082 3077 3072 3066 3060 3055 3050 3046 3042 3038 3036 3030 3024 3017
3154 3152 3150 3148 3145 3140 3136 3131 3126 3121 3116 3110 3104 3099 3094 3088 3083 3077 3070 3065 3059 3053 3048 3043 3039 3036 3032 3028 3024 3019 3015 3008
3149 3146 3143 3141 3136 3132 3127 3122 3117 3111 3105 3099 3093 3087 3082 3076 3069 3063 3058 3053 3048 3042 3039 3034 3029 3025 3022 3017 3013 3009 3004 2999
3142 3140 3137 3133 3128 3123 3117 3111 3107 3101 3096 3090 3084 3077 3071 3065 3059 3055 3050 3044 3039 3033 3029 3022 3019 3015 3012 3008 3003 2999 2994 2990